This is the latest recevied weather packets stored in our database for station/object AG1T-1. If no packets are shown the sender has not sent any weather packets the latest 10 day(s).
| Time | Temp. | Humidity | Pressure | Rain* | Wind** | Luminosity | Snow |
|---|---|---|---|---|---|---|---|
| 1777576203 | 14.44° C | 43% | 1022.6 hPa | 0 mm | - | 932 W/m² | - |
| 1777575603 | 14.44° C | 44% | 1022.7 hPa | 0 mm | - | 930 W/m² | - |
| 1777575003 | 14.44° C | 44% | 1022.9 hPa | 0 mm | - | 914 W/m² | - |
| 1777574403 | 14.44° C | 45% | 1022.9 hPa | 0 mm | - | 902 W/m² | - |
| 1777573803 | 13.89° C | 46% | 1023.1 hPa | 0 mm | - | 884 W/m² | - |
| 1777573203 | 13.33° C | 48% | 1023.2 hPa | 0 mm | - | 870 W/m² | - |
| 1777572603 | 13.33° C | 48% | 1023.3 hPa | 0 mm | - | 860 W/m² | - |
| 1777572003 | 13.33° C | 51% | 1023.5 hPa | 0 mm | - | 847 W/m² | - |
| 1777571403 | 12.78° C | 54% | 1023.5 hPa | 0 mm | - | 828 W/m² | - |
| 1777570803 | 12.22° C | 53% | 1023.6 hPa | 0 mm | - | 814 W/m² | - |
| 1777570203 | 12.22° C | 55% | 1023.8 hPa | 0 mm | - | 795 W/m² | - |
| 1777569603 | 11.67° C | 56% | 1023.9 hPa | 0 mm | - | 780 W/m² | - |
| 1777569003 | 11.67° C | 55% | 1024 hPa | 0 mm | - | 759 W/m² | - |
| 1777568403 | 11.11° C | 60% | 1024.1 hPa | 0 mm | - | 737 W/m² | - |
| 1777567803 | 10° C | 58% | 1024.2 hPa | 0 mm | - | 717 W/m² | - |
| 1777567203 | 10° C | 62% | 1024.2 hPa | 0 mm | - | 693 W/m² | - |
| 1777566603 | 9.44° C | 63% | 1024.3 hPa | 0 mm | - | 668 W/m² | - |
| 1777566003 | 8.89° C | 63% | 1024.4 hPa | 0 mm | - | 645 W/m² | - |
| 1777565403 | 8.33° C | 67% | 1024.5 hPa | 0 mm | - | 619 W/m² | - |
| 1777564803 | 8.33° C | 66% | 1024.5 hPa | 0 mm | - | 592 W/m² | - |
| 1777564203 | 8.33° C | 70% | 1024.6 hPa | 0 mm | - | 563 W/m² | - |
| 1777563603 | 7.78° C | 73% | 1024.7 hPa | 0 mm | - | 536 W/m² | - |
| 1777563003 | 6.67° C | 73% | 1024.7 hPa | 0 mm | - | 508 W/m² | - |
| 1777562403 | 6.67° C | 74% | 1024.8 hPa | 0 mm | - | 478 W/m² | - |
| 1777561803 | 6.67° C | 74% | 1024.7 hPa | 0 mm | - | 450 W/m² | - |
* Rain latest hour (hover to see other rain measurements)
** Current wind speed in m/s (hover to see current wind gust speed)